TimeCDT,TemperatureF,Dew PointF,Humidity,Sea Level PressureIn,VisibilityMPH,Wind Direction,Wind SpeedMPH,Gust SpeedMPH,PrecipitationIn,Events,Conditions,WindDirDegrees,DateUTC
12:15 AM,54.5,52.2,92,30.29,10.0,North,10.4,-,N/A,Rain,Light Rain,10,2012-09-13 05:15:00
12:35 AM,54.1,52.0,92,30.29,10.0,North,9.2,-,N/A,Rain,Light Rain,10,2012-09-13 05:35:00
12:55 AM,54.0,51.8,92,30.29,10.0,North,6.9,-,N/A,Rain,Light Rain,10,2012-09-13 05:55:00
1:15 AM,54.0,51.3,91,30.30,10.0,North,8.1,-,N/A,Rain,Light Rain,10,2012-09-13 06:15:00
1:35 AM,53.8,51.4,92,30.31,10.0,North,6.9,-,N/A,Rain,Light Rain,350,2012-09-13 06:35:00
1:55 AM,53.6,51.1,91,30.30,10.0,North,5.8,-,0.01,Rain,Light Rain,360,2012-09-13 06:55:00
2:15 AM,53.6,51.3,92,30.29,10.0,North,6.9,-,N/A,Rain,Light Rain,10,2012-09-13 07:15:00
2:35 AM,53.6,51.1,91,30.29,10.0,NE,8.1,-,0.01,Rain,Light Rain,40,2012-09-13 07:35:00
2:55 AM,53.2,50.7,91,30.32,10.0,North,4.6,-,0.01,,Light Drizzle,10,2012-09-13 07:55:00
3:15 AM,53.4,50.7,91,30.32,10.0,ENE,6.9,-,N/A,Rain,Light Rain,60,2012-09-13 08:15:00
3:35 AM,52.0,47.5,85,30.32,10.0,ENE,6.9,-,0.01,Rain,Light Rain,70,2012-09-13 08:35:00
3:55 AM,51.8,48.4,88,30.33,10.0,ENE,4.6,-,0.01,Rain,Light Rain,60,2012-09-13 08:55:00
4:15 AM,51.8,48.6,89,30.33,10.0,NNE,4.6,-,0.01,Rain,Light Rain,30,2012-09-13 09:15:00
4:35 AM,51.6,48.6,89,30.33,10.0,ESE,8.1,-,0.01,Rain,Rain,110,2012-09-13 09:35:00
4:55 AM,51.3,48.6,90,30.35,10.0,NE,3.5,-,0.01,,Mostly Cloudy,40,2012-09-13 09:55:00
5:15 AM,51.3,48.9,92,30.35,10.0,Calm,Calm,-,N/A,,Mostly Cloudy,0,2012-09-13 10:15:00
5:35 AM,51.3,48.7,91,30.35,10.0,Calm,Calm,-,N/A,,Scattered Clouds,0,2012-09-13 10:35:00
5:55 AM,51.3,48.4,90,30.36,10.0,NNE,5.8,-,N/A,,Clear,20,2012-09-13 10:55:00
6:15 AM,51.1,48.2,90,30.36,10.0,North,3.5,-,N/A,,Clear,10,2012-09-13 11:15:00
6:35 AM,50.9,47.8,89,30.36,10.0,North,3.5,-,N/A,,Clear,360,2012-09-13 11:35:00
6:55 AM,50.9,47.3,87,30.38,10.0,NNW,3.5,-,N/A,,Clear,340,2012-09-13 11:55:00
7:15 AM,51.1,47.1,86,30.38,10.0,North,3.5,-,N/A,,Clear,10,2012-09-13 12:15:00
7:35 AM,50.9,47.5,88,30.39,10.0,Calm,Calm,-,N/A,,Clear,0,2012-09-13 12:35:00
7:55 AM,51.1,48.6,91,30.39,10.0,Calm,Calm,-,N/A,,Scattered Clouds,0,2012-09-13 12:55:00
8:15 AM,51.8,49.1,90,30.40,10.0,North,3.5,-,N/A,,Scattered Clouds,360,2012-09-13 13:15:00
8:35 AM,52.2,49.6,91,30.40,10.0,North,3.5,-,N/A,,Clear,360,2012-09-13 13:35:00
8:55 AM,52.7,48.9,87,30.40,10.0,North,3.5,-,N/A,,Clear,360,2012-09-13 13:55:00
9:15 AM,53.6,49.3,85,30.41,10.0,North,4.6,-,N/A,,Clear,360,2012-09-13 14:15:00
9:35 AM,54.1,48.2,80,30.42,10.0,North,3.5,-,N/A,,Clear,10,2012-09-13 14:35:00
9:55 AM,54.7,48.0,78,30.42,10.0,North,3.5,-,N/A,,Clear,10,2012-09-13 14:55:00
10:15 AM,54.9,47.1,75,30.43,10.0,NNE,3.5,-,N/A,,Clear,30,2012-09-13 15:15:00
10:35 AM,56.3,47.5,72,30.43,10.0,ENE,3.5,-,N/A,,Clear,60,2012-09-13 15:35:00
10:55 AM,56.5,47.1,71,30.43,10.0,Calm,Calm,-,N/A,,Clear,0,2012-09-13 15:55:00
11:15 AM,57.4,47.5,70,30.43,10.0,Calm,Calm,-,N/A,,Clear,0,2012-09-13 16:15:00
11:35 AM,58.1,48.4,70,30.43,10.0,Calm,Calm,-,N/A,,Clear,0,2012-09-13 16:35:00
11:55 AM,59.2,48.4,67,30.43,10.0,Calm,Calm,-,N/A,,Clear,0,2012-09-13 16:55:00
12:15 PM,59.7,47.1,63,30.42,10.0,ENE,3.5,-,N/A,,Clear,70,2012-09-13 17:15:00
12:35 PM,61.0,48.2,63,30.42,10.0,Calm,Calm,-,N/A,,Clear,0,2012-09-13 17:35:00
12:55 PM,62.1,48.6,61,30.41,10.0,North,3.5,-,N/A,,Clear,350,2012-09-13 17:55:00
1:15 PM,62.8,48.6,60,30.41,10.0,Calm,Calm,-,N/A,,Clear,0,2012-09-13 18:15:00
1:35 PM,63.7,48.7,58,30.41,10.0,Calm,Calm,-,N/A,,Clear,0,2012-09-13 18:35:00
1:55 PM,64.2,48.7,57,30.40,10.0,SE,4.6,-,N/A,,Clear,130,2012-09-13 18:55:00
2:15 PM,65.3,48.7,55,30.39,10.0,Calm,Calm,-,N/A,,Clear,0,2012-09-13 19:15:00
2:35 PM,66.0,48.9,54,30.39,10.0,Calm,Calm,-,N/A,,Clear,0,2012-09-13 19:35:00
2:55 PM,66.7,48.7,52,30.38,10.0,Calm,Calm,-,N/A,,Clear,0,2012-09-13 19:55:00
3:15 PM,67.5,48.2,50,30.38,10.0,West,3.5,-,N/A,,Clear,270,2012-09-13 20:15:00
3:35 PM,68.4,46.9,46,30.38,10.0,WSW,3.5,-,N/A,,Clear,250,2012-09-13 20:35:00
3:55 PM,68.4,45.9,44,30.37,10.0,Calm,Calm,-,N/A,,Clear,0,2012-09-13 20:55:00
4:15 PM,69.1,45.5,43,30.37,10.0,Calm,Calm,-,N/A,,Clear,0,2012-09-13 21:15:00
4:35 PM,68.9,45.0,42,30.36,10.0,Calm,Calm,-,N/A,,Clear,0,2012-09-13 21:35:00
4:55 PM,69.3,43.5,39,30.36,10.0,Calm,Calm,-,N/A,,Clear,0,2012-09-13 21:55:00
5:15 PM,68.5,43.5,40,30.36,10.0,Calm,Calm,-,N/A,,Clear,0,2012-09-13 22:15:00
5:35 PM,68.9,43.5,40,30.36,10.0,Calm,Calm,-,N/A,,Clear,0,2012-09-13 22:35:00
5:55 PM,68.9,40.5,35,30.36,10.0,Calm,Calm,-,N/A,,Clear,0,2012-09-13 22:55:00
6:15 PM,68.5,42.8,39,30.36,10.0,Calm,Calm,-,N/A,,Clear,0,2012-09-13 23:15:00
6:35 PM,68.0,44.2,42,30.36,10.0,Calm,Calm,-,N/A,,Clear,0,2012-09-13 23:35:00
6:55 PM,66.2,49.3,54,30.36,10.0,SE,3.5,-,N/A,,Clear,140,2012-09-13 23:55:00
7:15 PM,64.6,48.6,56,30.36,10.0,SSE,3.5,-,N/A,,Clear,160,2012-09-14 00:15:00
7:35 PM,61.9,51.3,68,30.36,10.0,South,3.5,-,N/A,,Clear,190,2012-09-14 00:35:00
7:55 PM,60.1,50.4,70,30.36,10.0,South,4.6,-,N/A,,Clear,180,2012-09-14 00:55:00
8:15 PM,57.6,50.7,78,30.37,10.0,South,5.8,-,N/A,,Clear,180,2012-09-14 01:15:00
8:35 PM,56.8,50.0,78,30.37,10.0,South,4.6,-,N/A,,Clear,190,2012-09-14 01:35:00
8:55 PM,58.3,48.4,70,30.37,10.0,South,6.9,-,N/A,,Clear,180,2012-09-14 01:55:00
9:15 PM,56.3,48.6,75,30.38,10.0,South,5.8,-,N/A,,Clear,190,2012-09-14 02:15:00
9:35 PM,57.0,48.2,72,30.38,10.0,South,5.8,-,N/A,,Clear,180,2012-09-14 02:35:00
9:55 PM,54.5,48.2,79,30.38,10.0,South,5.8,-,N/A,,Clear,180,2012-09-14 02:55:00
10:15 PM,53.8,47.8,80,30.38,10.0,South,6.9,-,N/A,,Clear,180,2012-09-14 03:15:00
10:35 PM,53.6,48.0,81,30.38,10.0,South,5.8,-,N/A,,Clear,190,2012-09-14 03:35:00
10:55 PM,53.2,47.5,81,30.38,10.0,South,4.6,-,N/A,,Clear,190,2012-09-14 03:55:00
11:15 PM,52.9,47.5,82,30.38,10.0,South,5.8,-,N/A,,Clear,190,2012-09-14 04:15:00
11:35 PM,52.7,47.5,82,30.38,10.0,SSW,4.6,-,N/A,,Clear,200,2012-09-14 04:35:00
11:55 PM,54.9,47.7,77,30.38,10.0,SW,4.6,-,N/A,,Clear,220,2012-09-14 04:55:00